Probability
1 1 0 0 0 0 0 0 0 0 0 1 4 7 7 5 4 3 2 7 16 17 12 11 9 7 7 8 7 5 2 1 0 0 0 0 0 0 0 0 0 0 0 0 0 0 0 0 0
1 0 0 0 0 0 0 0 1 1 1 3 7 9 8 6 5 4 4 9 18 19 14 12 12 10 9 9 8 6 3 0 0 0 0 0 0 0 0 0 0 0 0 0 0 0 0 0 0
0 0 0 0 0 0 0 1 2 3 3 5 7 8 7 6 4 3 5 12 20 20 17 16 15 13 11 9 8 6 4 1 0 0 0 0 0 0 0 0 0 0 0 0 0 0 0 0 0
0 0 0 0 0 0 1 2 4 6 7 8 8 7 6 5 3 3 7 15 21 22 19 18 17 16 13 9 7 6 4 2 0 0 0 0 0 0 0 0 0 0 0 0 0 0 0 0 0
0 0 0 0 0 0 1 3 6 8 11 11 10 9 8 7 6 8 12 17 24 25 21 20 20 19 15 11 8 6 4 2 1 0 1 1 0 0 0 0 0 0 0 0 0 0 0 0 0
0 0 0 0 1 1 1 2 4 8 12 12 12 12 12 11 11 12 15 20 26 28 25 22 20 19 16 11 7 5 4 4 2 2 2 2 1 0 0 0 0 0 0 0 0 0 0 0 0
0 0 0 0 0 0 1 1 3 10 14 13 13 15 14 14 15 16 20 24 27 28 27 23 20 18 15 11 6 5 5 5 4 3 3 2 1 0 0 0 0 0 0 0 0 0 0 1 1
0 0 0 0 0 0 0 0 3 12 18 16 15 14 14 16 21 25 28 30 29 26 24 24 22 19 15 10 5 4 3 3 3 2 1 1 1 0 0 0 0 0 0 0 0 0 1 2 3
0 0 0 0 0 1 1 1 3 12 20 22 19 17 18 23 29 32 32 29 27 23 20 20 21 19 15 9 4 3 3 3 3 1 0 1 1 1 1 0 0 0 0 0 1 1 3 3 4
0 0 0 0 0 1 2 1 3 11 21 25 26 26 27 29 31 29 24 20 19 18 16 15 16 16 14 10 5 4 6 7 5 3 1 2 2 2 2 1 0 0 0 0 1 3 4 4 4
0 0 0 0 1 2 2 2 5 12 18 23 29 32 31 29 27 22 16 15 16 15 13 12 13 13 13 11 7 6 7 7 5 3 2 1 2 2 2 1 0 0 0 0 1 3 5 5 5
0 0 0 0 1 3 5 5 8 12 16 22 27 27 25 24 20 16 13 14 14 12 11 11 10 10 10 9 8 5 4 4 2 1 1 0 1 1 1 0 0 0 0 0 2 3 5 4 4
0 0 0 0 1 4 8 10 11 14 19 25 26 22 20 17 13 10 9 10 11 10 9 8 7 6 6 6 5 3 1 1 1 0 0 0 0 0 0 0 0 0 0 0 1 2 3 3 3
0 0 0 0 1 4 8 12 14 16 20 24 24 20 16 12 9 7 5 6 6 6 6 5 4 4 3 2 1 1 0 0 0 0 0 0 0 0 0 0 0 0 0 0 0 0 1 2 3
0 0 0 0 0 2 5 9 12 16 19 20 20 18 14 11 8 5 4 3 3 2 2 2 2 2 2 1 0 0 0 0 0 0 0 0 0 0 0 0 0 0 0 0 0 0 0 1 2
0 0 0 0 0 0 2 5 10 14 17 17 18 16 12 8 6 4 3 2 1 0 0 1 1 1 1 0 0 0 1 0 0 0 0 0 0 0 0 0 0 0 1 1 1 0 0 0 1
0 0 0 0 0 0 1 4 8 12 14 14 14 13 10 6 4 3 2 1 0 0 0 0 1 0 0 0 0 0 0 0 0 0 0 0 0 0 1 1 1 1 2 2 2 1 0 0 0
0 0 0 0 0 0 1 3 6 9 10 10 9 8 6 4 2 2 1 1 1 0 0 0 0 0 0 0 0 0 0 0 0 0 0 0 0 0 1 2 2 2 3 3 3 1 0 0 1
0 0 0 0 0 0 1 2 3 4 5 5 5 4 4 3 2 2 1 1 1 0 1 0 0 0 0 0 0 0 0 0 0 0 0 0 0 0 1 1 1 2 2 2 2 2 1 1 2
0 0 0 0 0 0 0 1 1 1 2 2 2 2 2 2 1 1 0 0 0 0 0 0 0 0 0 0 0 0 0 0 0 0 0 0 0 0 0 0 0 1 1 1 1 2 2 2 2
0 0 0 0 0 0 0 0 0 0 0 0 1 1 1 0 0 0 0 0 0 0 0 0 0 0 0 0 0 0 0 0 0 0 0 0 0 0 0 0 0 0 0 0 0 1 1 2 1
0 0 0 0 0 0 0 0 0 0 0 0 0 0 0 0 0 0 0 0 0 0 0 0 0 0 0 0 0 0 0 0 0 0 0 0 0 0 0 0 0 0 0 0 0 0 0 0 0
0 0 0 0 0 0 0 0 0 0 0 0 0 0 0 0 0 0 0 0 0 0 0 0 0 0 0 0 0 0 0 0 0 0 0 0 0 0 0 0 0 0 0 0 0 0 0 0 0
0 0 0 0 0 0 0 0 0 0 0 0 0 0 0 0 0 0 0 0 0 0 0 0 0 0 0 0 0 0 0 0 0 0 0 0 0 0 0 0 0 0 0 0 0 0 0 0 0
0 0 0 0 0 0 0 0 0 0 0 0 0 0 0 0 0 0 0 0 0 0 0 0 0 0 0 0 0 0 0 0 0 0 0 0 0 0 0 0 0 0 0 0 0 0 0 0 0
0 0 0 0 0 0 0 0 0 0 0 0 0 0 0 0 0 0 0 0 0 0 0 0 0 0 0 0 0 0 0 0 0 0 0 0 0 0 0 0 0 0 0 0 0 0 0 0 0
0 0 0 0 0 0 0 0 0 0 0 0 0 0 0 0 0 0 0 0 0 0 0 0 0 0 0 0 0 0 0 0 0 0 0 0 0 0 0 0 0 0 0 0 0 0 0 0 0
0 0 0 0 0 0 0 0 0 0 0 0 0 0 0 0 0 0 0 0 0 0 0 0 0 0 0 0 0 0 0 0 0 0 0 0 0 0 0 0 0 0 0 0 0 0 0 0 0
0 0 0 0 0 0 0 0 0 0 0 0 0 0 0 0 0 0 0 0 0 0 0 0 0 0 0 0 0 0 0 0 0 0 0 0 0 0 0 0 0 0 0 0 0 0 0 0 0
0 0 0 0 0 0 0 0 0 0 0 0 0 0 0 0 0 0 0 0 0 0 0 0 0 0 0 0 0 0 0 0 0 0 0 0 0 0 0 0 0 0 0 0 0 0 0 0 0
Wind_Speed
4 2 1 0 3 4 2 1 1 1 1 0 2 3 4 1 0 1 1 7 12 10 8 11 14 14 15 15 15 15 15 15 15 14 14 14 13 13 12 11 11 10 10 10 10 10 10 10 11
3 2 0 2 4 2 3 1 1 1 3 3 3 3 4 3 3 3 3 6 11 10 7 9 15 14 15 14 14 14 14 14 14 13 13 13 12 12 11 11 10 10 10 10 9 10 10 10 10
3 1 2 3 2 1 2 2 1 2 3 3 3 3 3 2 2 3 4 9 9 8 7 9 16 15 14 14 13 13 13 13 13 12 12 12 11 11 10 10 9 9 9 9 9 9 9 9 10
2 2 3 3 1 3 3 3 3 4 2 2 3 4 3 4 2 3 9 11 9 7 6 9 15 14 14 14 13 12 12 12 12 12 11 11 10 10 10 9 9 9 8 8 8 8 9 9 9
3 3 4 3 3 3 2 1 3 3 2 2 4 4 2 5 5 9 10 11 9 7 5 7 13 13 13 13 12 12 12 11 11 11 10 10 9 9 9 9 8 8 8 8 8 8 8 8 8
3 4 4 1 3 2 1 2 1 3 3 3 4 5 2 3 6 7 8 8 8 7 5 6 12 13 12 12 11 11 11 11 10 10 9 9 8 8 8 8 8 7 7 7 7 7 7 7 7
3 3 2 2 2 2 0 1 1 2 4 2 3 4 3 3 4 6 6 8 7 6 5 4 4 7 10 11 10 10 10 10 9 9 9 8 8 8 8 7 7 7 7 7 7 7 7 6 6
4 4 1 1 1 2 1 1 2 3 2 2 2 4 3 3 5 7 7 7 6 5 4 4 3 3 3 5 9 9 9 9 9 8 8 8 8 7 7 6 6 7 6 6 6 7 6 6 6
3 4 1 3 3 2 1 1 1 2 3 3 3 2 5 9 8 8 6 6 5 5 3 2 3 3 2 2 5 6 7 7 7 6 7 5 2 2 3 5 6 7 7 7 6 6 6 6 5
4 2 5 3 3 3 2 1 1 2 3 3 5 7 10 10 9 9 7 6 5 4 3 2 2 3 2 2 2 2 1 2 2 1 2 2 1 1 2 3 6 7 7 7 7 6 5 4 1
4 4 3 2 1 1 2 1 1 4 2 2 6 10 9 10 8 7 6 5 4 4 3 2 2 2 2 1 2 1 1 1 2 1 1 2 2 0 0 0 2 2 4 2 3 3 1 2 2
3 2 1 1 2 1 3 3 2 2 1 4 8 10 8 9 7 7 6 4 4 4 3 2 2 2 2 2 2 2 2 1 1 1 1 1 1 1 0 0 0 0 0 0 1 1 1 2 2
2 1 1 2 3 3 4 3 3 3 4 7 10 10 10 8 6 4 4 4 3 3 2 2 2 2 2 3 2 2 2 1 1 1 1 2 1 1 1 0 0 0 0 1 1 1 1 2 2
2 2 2 1 2 2 5 4 3 2 4 8 9 8 8 8 7 6 4 3 3 2 1 2 3 3 3 3 2 2 2 2 1 1 2 2 1 1 1 1 1 0 0 1 1 1 2 2 1
3 3 3 2 2 1 4 4 2 2 5 7 7 7 8 6 7 7 6 4 3 2 1 2 3 3 4 3 2 2 2 2 2 2 2 2 2 2 2 1 1 1 0 0 1 1 0 1 1
3 3 1 2 1 0 4 1 0 2 6 6 5 6 6 5 5 5 6 5 3 3 2 2 3 4 4 3 3 3 2 3 2 2 2 2 2 2 2 2 1 1 1 1 1 1 0 0 0
3 1 1 1 1 1 3 3 2 2 5 5 5 5 5 5 4 4 5 5 4 3 4 4 4 4 4 4 4 4 3 3 2 2 2 2 2 3 2 2 1 2 2 1 1 1 0 0 1
2 1 1 1 1 2 3 3 3 3 4 5 5 5 4 5 4 5 5 5 5 3 4 5 5 4 4 4 4 3 4 3 3 3 2 3 2 3 3 2 2 2 2 2 1 1 1 0 1
3 3 2 2 1 2 2 2 3 3 3 4 4 4 4 4 4 5 5 5 5 4 5 4 4 3 3 3 3 3 2 2 2 3 4 3 3 3 3 2 2 2 2 2 1 1 2 2 1
3 3 2 1 2 2 2 0 1 3 4 5 6 6 6 5 4 5 5 4 4 4 4 4 4 3 3 2 2 2 2 2 2 2 3 4 3 2 2 2 2 2 2 3 3 2 1 1 2
3 5 5 4 2 3 2 3 1 2 2 4 5 6 7 8 8 7 6 5 4 4 4 4 3 3 3 3 3 3 3 3 3 3 3 4 3 3 3 2 2 2 2 2 2 2 2 1 2
3 4 6 6 4 0 1 2 4 3 4 6 8 8 8 8 7 7 7 6 6 5 4 4 4 3 3 3 4 4 3 2 1 1 2 3 4 4 3 3 3 2 2 2 1 2 1 1 1
3 4 5 4 4 2 1 1 6 2 5 8 9 10 10 9 9 9 9 8 6 6 5 4 4 3 3 3 4 4 3 2 1 1 3 3 3 4 3 3 2 2 1 1 2 1 1 1 1
7 7 7 6 5 1 2 2 6 5 8 7 9 11 10 10 9 8 7 6 6 5 5 5 4 2 2 3 4 4 4 3 2 2 2 2 2 2 3 3 2 1 1 1 1 1 1 1 1
5 6 4 4 3 4 1 2 9 7 7 8 10 12 10 10 10 9 9 9 8 7 7 5 5 3 2 3 3 3 3 3 3 2 1 1 1 1 2 2 2 1 1 1 0 0 0 0 1
5 7 7 4 4 4 1 5 8 4 4 5 7 8 9 9 9 10 11 10 10 9 8 7 6 4 3 3 3 2 2 2 1 1 1 1 1 1 1 1 1 1 1 1 1 1 1 0 0
7 4 5 7 2 1 4 6 8 1 1 4 6 7 9 10 10 10 10 10 10 10 9 8 7 5 4 4 3 2 2 2 2 1 1 1 1 1 1 1 1 2 2 1 1 0 1 1 1
5 8 6 6 5 2 4 4 5 5 6 6 7 9 9 9 9 9 9 9 9 9 7 7 6 6 4 4 3 3 2 2 2 1 1 1 1 1 1 2 1 2 2 1 1 1 1 1 1
5 4 5 5 5 5 3 8 8 9 9 10 11 10 10 11 11 10 8 8 8 7 7 7 6 5 4 4 3 2 2 2 2 2 2 2 1 1 2 2 2 2 2 2 1 2 2 2 2
5 7 8 6 4 4 4 10 5 6 8 9 10 9 9 10 9 8 8 8 7 7 7 7 6 6 5 4 4 3 2 2 2 2 2 2 2 2 2 2 2 3 2 2 2 2 2 2 3
Wind_Direction
189 164 158 46 49 43 341 297 151 122 173 108 108 112 113 95 148 299 63 133 132 138 145 147 145 142 138 134 131 130 129 129 130 131 133 134 136 137 137 136 134 130 126 123 121 117 114 112 111
150 160 105 50 70 36 308 270 158 188 167 127 89 68 77 58 68 91 118 135 136 138 138 147 147 144 142 139 136 135 135 134 135 136 137 138 140 141 141 138 137 134 132 129 125 122 119 117 116
159 173 85 65 78 175 264 251 183 113 93 114 99 65 67 37 75 129 141 136 129 131 135 153 149 146 143 141 140 140 139 140 140 142 143 143 145 146 144 142 141 140 137 134 130 127 124 122 121
125 55 52 62 332 238 228 253 160 137 96 68 108 81 64 3 358 125 128 131 127 126 136 154 149 149 147 147 147 146 146 146 148 149 150 151 151 150 150 150 148 145 143 140 135 133 130 128 126
67 76 54 24 292 273 271 302 135 136 128 104 108 101 38 5 68 113 128 133 133 133 140 152 152 150 150 152 152 151 152 154 155 156 157 158 158 158 157 157 155 153 151 148 143 141 138 135 131
63 67 74 320 294 288 312 348 99 114 117 104 105 116 96 59 96 114 125 128 128 131 130 142 155 154 154 155 156 156 158 160 161 162 164 165 166 168 169 167 164 163 162 158 154 150 145 140 136
107 98 149 238 282 300 297 19 67 112 116 116 126 116 118 101 108 115 120 122 122 119 116 118 140 155 157 159 161 164 167 167 167 169 172 173 177 179 180 178 177 176 174 170 167 163 157 150 143
136 103 44 278 248 270 326 82 34 67 98 82 78 131 152 151 122 107 102 101 103 98 98 102 112 123 139 158 169 170 171 173 174 177 179 184 187 189 191 189 195 191 189 186 182 177 171 164 158
108 77 255 237 215 232 180 110 75 76 96 73 47 90 126 128 117 111 105 99 105 105 87 85 101 104 114 146 173 171 174 176 175 180 186 183 177 188 201 202 210 208 205 203 201 197 188 181 175
106 148 235 228 203 185 164 120 129 112 89 82 82 91 115 121 121 122 126 130 127 125 112 90 103 107 116 145 121 112 129 130 128 127 147 125 121 193 208 228 224 220 216 217 216 214 205 187 161
157 196 243 297 250 157 139 97 66 133 111 148 145 139 129 124 126 129 127 130 131 131 122 98 101 112 126 115 113 95 82 83 85 93 118 126 127 157 240 261 259 249 227 224 228 220 204 174 167
158 257 235 311 2 105 134 137 87 76 113 116 133 136 130 130 137 135 133 134 125 117 127 126 122 118 122 114 106 96 86 81 85 78 101 121 125 132 130 106 319 335 316 230 241 216 211 190 185
170 209 27 27 38 68 89 90 94 55 79 102 117 121 127 125 121 113 109 104 110 130 144 122 112 112 101 90 96 107 107 115 113 105 101 114 123 133 103 67 39 355 166 197 207 219 218 208 196
160 107 75 37 54 45 94 78 72 67 102 101 112 121 130 137 139 133 120 113 115 103 68 84 86 89 91 96 106 108 111 111 98 80 75 91 100 107 108 102 77 355 303 234 194 203 210 204 194
92 75 20 24 55 96 97 57 45 123 114 107 112 119 123 128 134 143 144 138 128 116 87 106 109 87 90 90 91 90 83 87 80 69 68 83 91 94 93 85 63 13 2 122 119 165 167 205 211
72 70 7 309 70 148 118 121 44 137 130 120 120 118 118 109 111 123 128 127 129 123 96 80 96 87 86 82 77 73 72 76 68 61 59 70 84 90 88 76 45 32 57 72 88 74 95 284 241
39 33 299 314 49 87 122 138 137 146 139 137 136 127 122 117 115 120 123 127 125 120 106 86 82 87 86 79 73 69 65 63 60 55 53 55 68 87 96 81 50 48 64 58 64 68 92 25 310
229 244 291 291 336 87 113 121 137 143 143 149 142 131 134 146 148 134 126 117 111 107 103 100 88 84 90 78 71 63 58 49 50 51 49 54 59 72 82 78 56 58 68 54 54 71 54 50 300
171 169 226 250 139 96 110 132 161 160 147 155 157 154 160 159 137 131 127 118 116 110 99 91 94 82 82 78 78 76 62 40 39 39 44 45 50 63 73 73 61 61 67 56 59 87 60 28 9
161 163 207 87 66 96 96 28 193 184 184 180 175 176 178 165 149 142 131 128 126 122 111 106 98 86 78 88 96 101 100 73 57 27 31 29 33 45 78 82 74 63 66 54 49 62 75 30 33
193 186 190 160 88 53 73 342 233 214 173 182 188 185 185 182 176 167 157 153 143 138 137 125 107 90 83 91 93 82 62 46 32 21 15 7 21 45 66 78 84 75 79 71 48 59 87 71 24
228 212 157 136 120 339 90 276 267 211 214 203 198 193 193 187 179 174 169 167 165 162 148 131 119 104 95 98 104 108 106 96 48 8 1 8 25 42 60 69 73 76 76 69 38 66 67 100 63
170 87 100 102 110 62 29 179 281 194 228 221 205 199 196 191 183 181 180 175 168 160 150 139 123 106 96 97 107 105 102 106 75 46 39 29 21 28 40 58 63 61 57 58 50 62 69 92 124
118 74 60 52 65 355 234 176 273 222 215 211 201 199 196 191 185 180 173 160 158 154 149 147 135 124 114 113 115 123 127 126 104 75 56 32 16 15 23 42 45 42 38 33 34 66 97 114 132
94 93 46 2 6 260 219 213 252 242 215 200 194 194 192 185 179 176 171 170 169 167 166 160 153 160 157 141 135 142 147 144 139 137 115 81 24 4 355 14 8 2 348 344 16 60 62 154 167
168 142 157 197 223 270 253 241 255 253 222 199 190 182 178 180 181 182 181 178 177 175 172 168 171 178 175 163 161 159 157 152 162 172 175 188 226 268 301 332 337 338 346 8 29 21 324 206 227
140 173 157 129 136 301 279 280 299 218 171 174 173 173 182 185 184 184 179 177 177 177 179 177 176 183 184 177 169 167 171 177 189 196 189 216 252 266 298 318 333 343 351 356 11 345 311 302 272
133 140 108 118 141 253 292 274 249 230 206 190 187 191 191 182 182 182 178 179 178 177 174 171 175 184 181 175 182 179 187 193 194 186 203 227 263 284 307 316 324 330 337 341 335 298 290 282 280
119 112 111 114 147 157 247 270 227 209 196 190 198 196 188 182 184 181 177 174 167 162 165 172 177 177 178 183 187 180 190 189 185 197 221 233 255 273 283 291 299 306 309 316 304 287 284 281 288
162 165 149 151 194 172 181 265 264 214 199 187 192 191 186 183 180 172 166 160 162 169 173 178 180 182 188 184 181 186 186 181 193 220 239 241 257 273 275 280 287 291 290 292 277 285 288 276 281